COSMOS 1434

Satellite information

Favourite Embed

Satellite Type and Status

PAYLOADIN ORBIT

Key statistics

Satellite COSMOS 1434 at a glance.

Uptime

15625

Days in orbit

Revolutions

≈ 12.5

Per day

Orbit

LEO

Low Earth Orbit

Inclination

74.0

Latest

Satellite identification and parameters

Extended collection of information and parameters for COSMOS 1434.

Object identification

Identified? True

Debris? False

Object name: COSMOS 1434

International designator: 1983-002F

Object number (NORAD): 13766

Object ID (CCSDS): 13766

Country: COMMONWEALTH OF INDEPENDENT STATES (CIS)

Current information (Y/N): Y

RCS size: MEDIUM

Orbital parameters

Period: 114.849 minutes

Inclination: 74.0208 deg

SMA: 7826.7 km

Apoapsis: 1467.208 km

Periapsis: 1429.921 km

RAAN: 129.9989 deg

Eccentricy: 0.00238209

Argument of periapsis: 226.8279 deg

Mean anomaly: 143.6453 deg

Mean motion: 12.53818783 rev/day

Mean motion (dot): -0.00000008 rev/day2

B* drag term: 0.000052956929 1/REarth

Two-line elements (TLE)

Creation date: Oct. 28, 2025, 7:11 p.m.

Reference frame: TEME

Reference center: EARTH

Epoch: Oct. 28, 2025, 1:08 p.m. UTC

TLE line 0: 0 COSMOS 1434

TLE line 1: 1 13766U 83002F 25301.54778727 -.00000008 00000-0 52957-4 0 9995

TLE line 2: 2 13766 74.0208 129.9989 0023821 226.8279 143.6453 12.53818783958043

Live tracking on map

Real-time ground track for satellite COSMOS 1434.

In-orbit conjunctions

There are no conjunctions computed for COSMOS 1434, at the moment. Check back to stay up to date, as we update our databases every day.

Go to all conjunctions

Associated space launch

Military communications satellites

COSMOS 1434 was lifted into orbit during the mission ‘Kosmos-3M | Strela-1M 257-264’, on board a Kosmos-3M space rocket.

The launch took place on Jan. 19, 1983, 2:25 a.m. from 132/1 (132L).

For more information about the launch, click the button.

Launch to space Kosmos-3M | Strela-1M 257-264
Kosmos-3M | Strela-1M 257-264

Agency: N/A

Status: Launch Successful

Launch date: Jan. 19, 1983, 2:25 a.m. UTC

Rocket: Kosmos-3M

Launch pad: 132/1 (132L)

Location: Plesetsk Cosmodrome, Russian Federation

...

Latest news about this satellite

There are no fresh news available about this satellite. Check back as we update our databases every day.


Newsletter sign-up

Weekly statistics, charts and insights to help you stay on top of the space industry.